Regional Weather Roundup
Issued by NWS

Home | Current Version | Previous Version | Graphics & Text | Print | Product List | Glossary On
Versions: 1 2 3 4 5 6 7 8 9 10 11 12 13 14 15 16 17 18 19 20 21 22 23 24 25 26 27 28 29 30 31 32 33 34 35 36 37 38 39 40 41 42 43 44 45 46 47 48 49 50
259
ASUS43 KIND 222109
RWRIN

WEATHER ROUNDUP FOR INDIANA
NATIONAL WEATHER SERVICE INDIANAPOLIS IN
400 PM EST MON JAN 22 2018

NOTE: "FAIR" INDICATES FEW OR NO CLOUDS BELOW 12,000 FEET WITH NO
SIGNIFICANT WEATHER AND/OR OBSTRUCTIONS TO VISIBILITY.

* - STATION DOES NOT REPORT WEATHER SUCH AS PRECIPITATION OR FOG.

+ - STATION NOT QUALITY CONTROLLED BY THE NATIONAL WEATHER SERVICE.
    USE DATA WITH CAUTION...ESPECIALLY DEWPOINT AND RELATIVE
    HUMIDITY OBSERVATIONS.

INZ001>003-010>013-019-020-222200-
NORTHWEST INDIANA

CITY           SKY/WX    TMP DP  RH WIND       PRES   REMARKS
GARY /AIRPORT/ CLOUDY    55  48  76 S14G28    29.48F
KNOX *+        CLOUDY    52  46  82 SW28G33   29.52F
LA PORTE +     DRIZZLE   51  48  90 S12G20    29.52F
MICHIGAN CITY+ DRIZZLE   50  50 100 S15G21    29.51S
MONTICELLO +   CLOUDY    52  49  89 S16G24    29.53R
RENSSELAER +   CLOUDY    52  45  76 S15G22    29.51F
VALPARAISO     CLOUDY    53  49  86 S18G24    29.51S

$$

LMZ046-743>745-222200-
SOUTHERN LAKE MICHIGAN

STATION/POSITION TIME  TEMP    WIND        PRES    WAVE
                       AIR SEA DIR/SP/G            HT
                 (UTC) (F)     (DEG/KT/KT) (MB)    (FT)
BURNS HARBOR     2040   52     180/ 14/ 25  999.3F
MICHIGAN CITY    2040   51     180/ 18/ 21   N/A

$$

INZ004-005-014>016-021>024-222200-
NORTH CENTRAL INDIANA

CITY           SKY/WX    TMP DP  RH WIND       PRES   REMARKS
ELKHART        CLOUDY    52  48  87 S12       29.54S
GOSHEN         CLOUDY    52  47  83 S20G28    29.54S
LOGANSPORT +   CLOUDY    52  46  82 S17G25    29.56S
PERU/GRISSOM   CLOUDY    52  52 100 S20G26    29.55R
ROCHESTER +    CLOUDY    54  50  87 S14G23    29.55F
SOUTH BEND     LGT RAIN  52  48  86 S16G25    29.53S
WARSAW +       CLOUDY    52  46  82 S12G18    29.55F

$$

INZ006>009-017-018-025>027-222200-
NORTHEAST INDIANA

CITY           SKY/WX    TMP DP  RH WIND       PRES   REMARKS
AUBURN +       CLOUDY   N/A N/A N/A S10G18    29.59F
FORT WAYNE     CLOUDY    54  49  83 S22G35    29.58F
HUNTINGTON +   CLOUDY    53  48  85 S18G28    29.57S
KENDALLVILLE + CLOUDY    52  48  87 S18G24    29.56F

$$

INZ028-029-035-036-043>045-051>053-222200-
WEST CENTRAL INDIANA

CITY           SKY/WX    TMP DP  RH WIND       PRES   REMARKS
CRAWFORDSVL +  CLOUDY    50  50 100 MISG      29.55S
GREENCASTLE +  CLOUDY    54  46  76 S8G20     29.57S
LAFAYETTE      LGT RAIN  51  49  92 S10G22    29.54S
TERRE HAUTE    PTSUNNY   55  48  77 S22G30    29.54F

$$

INZ030>032-037>040-046>048-054>057-064-065-222200-
CENTRAL INDIANA

CITY           SKY/WX    TMP DP  RH WIND       PRES   REMARKS
ANDERSON       CLOUDY    54  48  82 S17G35    29.59F
COLUMBUS       CLOUDY    52  48  87 S17G24    29.61F
FRANKFORT +    CLOUDY    53  50  89 S14G20    29.57F
INDIANAPOLIS   CLOUDY    53  49  86 S22G30    29.58F
-EAGLE CREEK   CLOUDY    54  48  80 S12G18    29.57S
MARION +       CLOUDY    52  48  87 S22G30    29.58F
MT COMFORT *+  CLOUDY    52  52 100 S16G22    29.59F
SHELBYVILLE    CLOUDY    54  49  83 S21G29    29.60F
ZIONSVILLE +   CLOUDY    51  49  91 S18G26    29.57F

$$

INZ033-034-041-042-049-050-058-059-222200-
EAST CENTRAL INDIANA

CITY           SKY/WX    TMP DP  RH WIND       PRES   REMARKS
MUNCIE         CLOUDY    55  48  77 S20G32    29.59F
RICHMOND +     CLOUDY    50  46  87 S22G28    29.67S

$$

INZ060-061-067>069-081>083-085>088-222200-
SOUTHWEST INDIANA

CITY           SKY/WX    TMP DP  RH WIND       PRES   REMARKS
EVANSVILLE     FAIR      59  52  77 S17G26    29.58F
HUNTINGBURG +  CLOUDY    56  51  84 S21G26    29.61S
WASHINGTON +   CLOUDY    56  49  78 S21G28    29.58F

$$

INZ062-063-066-070>080-084-089>092-222200-
SOUTH CENTRAL AND SOUTHEAST INDIANA

CITY           SKY/WX    TMP DP  RH WIND       PRES   REMARKS
BATESVILLE *+    N/A    N/A N/A N/A MISG        N/A
BLOOMINGTON    CLOUDY    55  49  80 S16       29.58F
FRENCH LICK *+ CLOUDY    54  54 100 S13G21    29.62S
MADISON *+     CLOUDY    54  46  76 S10       29.67F
NORTH VERNON + CLOUDY    52  48  87 S14G23    29.64F

$$





USA.gov is the U.S. government's official web portal to all federal, state and local government web resources and services.